{"data":{"norad_id":69683,"epoch":"2026-09-20T03:05:17.236608Z","epoch_age_seconds":53741,"freshness":"FRESH","line1":"1 69683U 26145G   26263.12867172  .00005379  00000+0  16884-3 0  9996","line2":"2 69683  97.2853 109.7583 0001927  86.9557 273.1907 15.33441464 13480","mean_motion":15.33441464,"eccentricity":0.0001927,"inclination_deg":97.2853,"raan_deg":109.7583,"arg_perigee_deg":86.9557,"mean_anomaly_deg":273.1907,"bstar":0.00016884,"rev_number":1348,"period_min":93.906421197438,"perigee_km":464.23491594961,"apogee_km":466.87247434351,"semimajor_km":6843.6906951466,"source":"CELESTRAK","updated_at":"2026-09-20T09:00:44.253094Z"}}